Location: Ciserano
(45.5833°N, 9.6000°E)
Time: 05:08:34
(UTC+00:00)

Milstar 3 Cent rocket - Pass Details

Date: 29 November 2020
Orbit: 706 x 5147 km, 28.3° (Epoch: 24 January)

Event Time Altitude Azimuth Distance (km) Brightness Sun altitude
Exits shadow 04:00:12 18° 206° (SSW) 2,575 4.5 -27.2°
Maximum altitude 04:03:54 25° 167° (SSE) 2,622 4.8 -26.6°
Drops below altitude 10° 04:13:13 10° 119° (ESE) 4,956 7.0 -25.0°
Sets 04:19:32 0° 109° (ESE) 6,817 8.2 -23.9°
